This is the latest recevied weather packets stored in our database for station/object KE4EST. If no packets are shown the sender has not sent any weather packets the latest 10 day(s).
| Time | Temp. | Humidity | Pressure | Rain* | Wind** | Luminosity | Snow |
|---|---|---|---|---|---|---|---|
| 1778017926 | 23.33° C | 41% | 1013.4 hPa | 0 mm | - | 70 W/m² | - |
| 1778017623 | 23.33° C | 43% | 1013.2 hPa | 0 mm | - | 71 W/m² | - |
| 1778017321 | 23.89° C | 44% | 1013.5 hPa | 0 mm | - | 67 W/m² | - |
| 1778017018 | 24.44° C | 40% | 1013.5 hPa | 0 mm | - | 75 W/m² | - |
| 1778016715 | 24.44° C | 41% | 1013.5 hPa | 0 mm | - | 97 W/m² | - |
| 1778016411 | 24.44° C | 39% | 1013.4 hPa | 0 mm | - | 90 W/m² | - |
| 1778016108 | 24.44° C | 38% | 1013.4 hPa | 0 mm | - | 68 W/m² | - |
| 1778015805 | 24.44° C | 39% | 1013.3 hPa | 0 mm | - | 76 W/m² | - |
| 1778015503 | 24.44° C | 38% | 1013.5 hPa | 0 mm | - | 76 W/m² | - |
| 1778015199 | 25° C | 38% | 1013.5 hPa | 0 mm | - | 70 W/m² | - |
| 1778014895 | 25.56° C | 37% | 1013.2 hPa | 0 mm | - | 263 W/m² | - |
| 1778014593 | 25.56° C | 37% | 1013.4 hPa | 0 mm | - | 430 W/m² | - |
| 1778014291 | 24.44° C | 37% | 1013.5 hPa | 0 mm | - | 191 W/m² | - |
| 1778013982 | 24.44° C | 39% | 1013.6 hPa | 0 mm | - | 160 W/m² | - |
| 1778013680 | 24.44° C | 36% | 1013.5 hPa | 0 mm | - | 246 W/m² | - |
| 1778013375 | 25° C | 37% | 1013.4 hPa | 0 mm | - | 334 W/m² | - |
| 1778013073 | 25.56° C | 37% | 1013.5 hPa | 0 mm | - | 469 W/m² | - |
| 1778012763 | 26.11° C | 36% | 1013.5 hPa | 0 mm | - | 243 W/m² | - |
| 1778012459 | 26.11° C | 39% | 1013.6 hPa | 0 mm | - | 490 W/m² | - |
| 1778012156 | 26.11° C | 39% | 1013.7 hPa | 0 mm | - | 470 W/m² | - |
| 1778011854 | 26.11° C | 38% | 1013.6 hPa | 0 mm | - | 537 W/m² | - |
| 1778011552 | 25° C | 39% | 1013.6 hPa | 0 mm | - | 366 W/m² | - |
| 1778011248 | 25° C | 40% | 1013.7 hPa | 0 mm | - | 508 W/m² | - |
| 1778010944 | 26.11° C | 38% | 1013.7 hPa | 0 mm | - | 385 W/m² | - |
| 1778010642 | 26.11° C | 36% | 1013.8 hPa | 0 mm | - | 560 W/m² | - |
* Rain latest hour (hover to see other rain measurements)
** Current wind speed in m/s (hover to see current wind gust speed)